{"data":{"norad_id":55991,"epoch":"2026-09-19T17:12:27.587808Z","epoch_age_seconds":173858,"freshness":"STALE","line1":"1 55991U 23042F   26262.71698597  .00000215  00000+0  17366-4 0  9994","line2":"2 55991  43.0051  40.4145 0002028 264.9771  95.0850 15.27579004192582","mean_motion":15.27579004,"eccentricity":0.0002028,"inclination_deg":43.0051,"raan_deg":40.4145,"arg_perigee_deg":264.9771,"mean_anomaly_deg":95.085,"bstar":1.7366e-5,"rev_number":19258,"period_min":94.266810176713,"perigee_km":481.66062927848,"apogee_km":484.44352756869,"semimajor_km":6861.1890784236,"source":"CELESTRAK","updated_at":"2026-09-21T09:00:33.350419Z"}}